Tracking 29594 objects as of 20-Sep-2024
HD Live streaming from Space Station
objects crossing your sky now

SL-12 R/B(2)

Track SL-12 R/B(2) now!


NORAD ID: 25743
Int'l Code: 1999-027D
Perigee: 7,007.5 km
Apogee: 35,745.1 km
Inclination: 17.6 °
Period: 766.6 minutes
Semi major axis: 27747 km
RCS: 23.7189 m2 (large)
Launch date: May 20, 1999
Source: Commonwealth of Independent States (former USSR) (CIS)
Launch site: TYURATAM MISSILE AND SPACE COMPLEX (TTMTR)

Note: This is a ROCKET BODY
Your satellite tracking list
Your tracking list is empty




NASA's NSSDC Master Catalog

Two Line Element Set (TLE):
1 25743U 99027D   24264.57120542 -.00000154  00000-0  00000+0 0  9992
2 25743  17.5601 306.2730 5178444  52.6208  43.2258  1.87832688173949
Source of the keplerian elements: AFSPC